KF5RM Weather Reports


Display with metric or nautical units.
time (UTC)temp
F
wind
direction
speed
MPH
gust
MPH
rain 1hr
in
rain 24hr
in
rain mn
in
humidity
%
barometer
mb
20260503234003 84 128 0.0 8.0 0.00 0.00 0.00 38 1017.8
20260503233003 84 114 1.0 12.0 0.00 0.00 0.00 38 1017.8
20260503232503 84 107 0.0 12.0 0.00 0.00 0.00 37 1018.0
20260503232003 84 0 1.0 0.0 0.00 0.00 0.00 37 1017.9
20260503231502 84 121 1.0 7.0 0.00 0.00 0.00 37 1017.9
20260503231002 84 126 1.0 7.0 0.00 0.00 0.00 38 1017.8
20260503230502 84 130 0.0 7.0 0.00 0.00 0.00 37 1017.7
20260503230003 84 0 0.0 0.0 0.00 0.00 0.00 38 1017.8
20260503225503 84 149 0.0 3.0 0.00 0.00 0.00 37 1017.9
20260503225002 84 149 0.0 3.0 0.00 0.00 0.00 36 1017.8
20260503224502 84 0 0.0 0.0 0.00 0.00 0.00 36 1017.9
20260503224003 84 0 0.0 0.0 0.00 0.00 0.00 36 1017.8
20260503223502 84 0 0.0 0.0 0.00 0.00 0.00 35 1017.9
20260503223003 85 0 0.0 0.0 0.00 0.00 0.00 36 1018.2
20260503222003 84 0 0.0 0.0 0.00 0.00 0.00 36 1018.2
20260503221502 85 0 0.0 0.0 0.00 0.00 0.00 36 1018.3
20260503221003 85 0 0.0 0.0 0.00 0.00 0.00 35 1018.5
20260503220503 85 0 0.0 0.0 0.00 0.00 0.00 35 1018.4
20260503220003 85 0 0.0 0.0 0.00 0.00 0.00 35 1018.6
20260503215503 85 0 0.0 0.0 0.00 0.00 0.00 35 1018.6
20260503215003 85 0 0.0 0.0 0.00 0.00 0.00 35 1018.8
20260503214502 85 191 0.0 3.0 0.00 0.00 0.00 35 1018.9
20260503214003 85 187 0.0 3.0 0.00 0.00 0.00 35 1018.9
20260503213503 85 152 0.0 3.0 0.00 0.00 0.00 35 1018.9
20260503213003 85 246 0.0 3.0 0.00 0.00 0.00 36 1019.1
20260503212503 85 246 0.0 3.0 0.00 0.00 0.00 35 1019.2
20260503212002 85 0 0.0 0.0 0.00 0.00 0.00 36 1019.2
20260503211503 84 72 0.0 1.0 0.00 0.00 0.00 36 1019.4
20260503211003 84 72 0.0 1.0 0.00 0.00 0.00 35 1019.7
20260503210503 85 0 0.0 0.0 0.00 0.00 0.00 35 1019.9
20260503205503 84 0 0.0 0.0 0.00 0.00 0.00 35 1020.3
20260503204503 85 0 0.0 0.0 0.00 0.00 0.00 35 1020.6
20260503204003 84 0 0.0 0.0 0.00 0.00 0.00 36 1020.5
20260503203503 84 0 0.0 0.0 0.00 0.00 0.00 36 1020.7
20260503202003 84 0 0.0 0.0 0.00 0.00 0.00 35 1020.7
20260503201002 84 0 0.0 0.0 0.00 0.00 0.00 35 1020.9
20260503200503 83 0 0.0 0.0 0.00 0.00 0.00 37 1020.9
20260503195503 82 0 0.0 0.0 0.00 0.00 0.00 36 1021.1
20260503195003 82 0 0.0 0.0 0.00 0.00 0.00 37 1021.1
20260503194503 82 146 0.0 1.0 0.00 0.00 0.00 37 1021.3
20260503194003 83 149 0.0 2.0 0.00 0.00 0.00 36 1021.6
20260503193503 84 150 0.0 2.0 0.00 0.00 0.00 36 1021.6
20260503193003 84 0 0.0 0.0 0.00 0.00 0.00 37 1021.7
20260503192502 83 0 0.0 0.0 0.00 0.00 0.00 37 1021.7
20260503191503 83 254 0.0 5.0 0.00 0.00 0.00 36 1022.0
20260503191003 82 200 0.0 4.0 0.00 0.00 0.00 36 1022.2
20260503190502 82 200 0.0 4.0 0.00 0.00 0.00 37 1022.4
20260503190004 82 116 0.0 2.0 0.00 0.00 0.00 36 1022.5
20260503185503 81 130 0.0 4.0 0.00 0.00 0.00 36 1022.7
20260503185003 82 133 0.0 4.0 0.00 0.00 0.00 35 1022.7
20260503184502 82 113 0.0 1.0 0.00 0.00 0.00 35 1022.9
20260503184003 82 113 0.0 1.0 0.00 0.00 0.00 34 1022.9
20260503183503 82 0 0.0 0.0 0.00 0.00 0.00 36 1022.9
20260503182504 81 0 0.0 0.0 0.00 0.00 0.00 35 1023.1
20260503181504 80 0 0.0 0.0 0.00 0.00 0.00 37 1023.4
20260503180503 80 0 0.0 0.0 0.00 0.00 0.00 40 1023.4
20260503180004 80 0 0.0 0.0 0.00 0.00 0.00 39 1023.6
20260503175003 80 132 0.0 3.0 0.00 0.00 0.00 38 1023.8
20260503174003 80 0 0.0 0.0 0.00 0.00 0.00 41 1024.0
20260503173503 79 0 0.0 0.0 0.00 0.00 0.00 43 1024.1
20260503173003 78 0 0.0 0.0 0.00 0.00 0.00 42 1024.2
20260503172504 78 0 0.0 0.0 0.00 0.00 0.00 40 1024.2
20260503172003 78 0 0.0 0.0 0.00 0.00 0.00 43 1024.2
20260503171503 78 150 0.0 4.0 0.00 0.00 0.00 43 1024.3
20260503171003 78 150 0.0 4.0 0.00 0.00 0.00 42 1024.3
20260503170503 78 0 0.0 0.0 0.00 0.00 0.00 43 1024.3
20260503151003 74 0 0.0 0.0 0.00 0.00 0.00 57 1025.0
20260503150503 73 0 0.0 0.0 0.00 0.00 0.00 57 1025.1
20260503131003 64 0 0.0 0.0 0.00 0.00 0.00 75 1024.4
20260503130503 63 0 0.0 0.0 0.00 0.00 0.00 75 1024.4
20260503110503 60 0 0.0 0.0 0.00 0.00 0.00 81 1023.5
20260503090503 62 0 0.0 0.0 0.00 0.00 0.00 74 1023.1
20260503081504 63 0 0.0 0.0 0.00 0.00 0.00 72 1023.4
20260503081003 63 0 0.0 0.0 0.00 0.00 0.00 72 1023.5
20260503072002 65 0 0.0 0.0 0.00 0.00 0.00 68 1023.9
20260503071502 65 0 0.0 0.0 0.00 0.00 0.00 67 1023.9
20260503071002 65 0 0.0 0.0 0.00 0.00 0.00 67 1024.0
20260503070501 65 0 0.0 0.0 0.00 0.00 0.00 66 1024.0
20260503055002 66 0 0.0 0.0 0.00 0.00 0.00 63 1023.9
20260503054502 66 0 0.0 0.0 0.00 0.00 0.00 62 1023.9
20260503053503 66 0 0.0 0.0 0.00 0.00 0.00 62 1023.8
20260503053002 66 0 0.0 0.0 0.00 0.00 0.00 61 1023.7
20260503052502 67 0 0.0 0.0 0.00 0.00 0.00 61 1023.8
20260503052003 67 0 0.0 0.0 0.00 0.00 0.00 60 1023.7
20260503051502 67 0 0.0 0.0 0.00 0.00 0.00 60 1023.6
20260503051002 67 0 0.0 0.0 0.00 0.00 0.00 60 1023.6
20260503050503 67 0 0.0 0.0 0.00 0.00 0.00 60 1023.7
20260503050005 68 0 0.0 0.0 0.00 0.00 0.00 59 1023.7
20260503045502 68 0 0.0 0.0 0.00 0.00 0.00 58 1023.6
20260503045002 68 0 0.0 0.0 0.00 0.00 0.00 56 1023.6
20260503044503 69 0 0.0 0.0 0.00 0.00 0.00 55 1023.6
20260503044002 69 0 0.0 0.0 0.00 0.00 0.00 54 1023.5
20260503043503 69 0 0.0 0.0 0.00 0.00 0.00 54 1023.4
20260503042502 69 0 0.0 0.0 0.00 0.00 0.00 53 1023.3
20260503042002 69 0 0.0 0.0 0.00 0.00 0.00 53 1023.3
20260503041503 69 0 0.0 0.0 0.00 0.00 0.00 53 1023.3
20260503041002 69 0 0.0 0.0 0.00 0.00 0.00 53 1023.2
20260503040503 69 0 0.0 0.0 0.00 0.00 0.00 53 1023.3
20260503040003 69 0 0.0 0.0 0.00 0.00 0.00 54 1023.4
20260503035502 69 0 0.0 0.0 0.00 0.00 0.00 54 1023.4
20260503035003 69 0 0.0 0.0 0.00 0.00 0.00 55 1023.4
20260503034503 69 0 0.0 0.0 0.00 0.00 0.00 54 1023.3
20260503034003 69 0 0.0 0.0 0.00 0.00 0.00 55 1023.3
20260503033503 69 0 0.0 0.0 0.00 0.00 0.00 56 1023.2
20260503032002 70 0 0.0 0.0 0.00 0.00 0.00 50 1022.9
20260503031503 71 0 0.0 0.0 0.00 0.00 0.00 49 1023.0
20260503031003 71 0 0.0 0.0 0.00 0.00 0.00 49 1023.0
20260503030003 71 0 0.0 0.0 0.00 0.00 0.00 48 1022.9
20260503025502 71 0 0.0 0.0 0.00 0.00 0.00 48 1022.9
20260503025003 71 0 0.0 0.0 0.00 0.00 0.00 48 1022.8
20260503024503 71 0 0.0 0.0 0.00 0.00 0.00 48 1022.9
20260503024003 71 0 0.0 0.0 0.00 0.00 0.00 48 1022.7
20260503023503 71 0 0.0 0.0 0.00 0.00 0.00 48 1022.7
20260503022503 72 0 0.0 0.0 0.00 0.00 0.00 47 1022.6
20260503022003 72 0 0.0 0.0 0.00 0.00 0.00 46 1022.5
20260503021502 72 0 0.0 0.0 0.00 0.00 0.00 46 1022.4
20260503021002 72 0 0.0 0.0 0.00 0.00 0.00 45 1022.4
20260503020503 72 0 0.0 0.0 0.00 0.00 0.00 44 1022.3
20260503020003 73 0 0.0 0.0 0.00 0.00 0.00 44 1022.2
20260503015503 73 0 0.0 0.0 0.00 0.00 0.00 44 1022.1
20260503014503 73 0 0.0 0.0 0.00 0.00 0.00 43 1022.0
20260503013502 74 0 0.0 0.0 0.00 0.00 0.00 42 1021.9
20260503012502 74 0 0.0 0.0 0.00 0.00 0.00 41 1021.6
20260503012003 74 0 0.0 0.0 0.00 0.00 0.00 41 1021.7
20260503011502 75 0 0.0 0.0 0.00 0.00 0.00 40 1021.6
20260503011003 75 0 0.0 0.0 0.00 0.00 0.00 40 1021.5
20260503010502 75 0 0.0 0.0 0.00 0.00 0.00 40 1021.4
20260503010003 75 0 0.0 0.0 0.00 0.00 0.00 39 1021.3
20260503005502 76 0 0.0 0.0 0.00 0.00 0.00 40 1021.3
20260503005002 76 0 0.0 0.0 0.00 0.00 0.00 39 1021.2
20260503004502 76 0 0.0 0.0 0.00 0.00 0.00 39 1021.1
20260503004003 76 0 0.0 0.0 0.00 0.00 0.00 39 1021.1
20260503002502 77 0 0.0 0.0 0.00 0.00 0.00 38 1020.9
20260503001503 77 0 0.0 0.0 0.00 0.00 0.00 38 1021.0
20260503000502 77 115 0.0 3.0 0.00 0.00 0.00 38 1021.0
20260503000003 77 76 0.0 1.0 0.00 0.00 0.00 38 1020.9
20260502235503 77 76 0.0 1.0 0.00 0.00 0.00 38 1020.9
20260502234502 78 104 0.0 8.0 0.00 0.00 0.00 38 1020.9